GFSNW_700_temp_057.txt.gz
Temp
-7 -8 -8 -8 -8 -8 -8 -8 -8 -6 -5 -5 -4 -5 -4 -4 -1 0 1 1 2 3 3 4 4 5 5 5 5 5 5 5 5 5 5 6 6 6 5 5 4 4 3 5
-7 -7 -8 -9 -8 -8 -8 -8 -8 -8 -7 -7 -2 -3 -5 -4 -2 0 -0 1 1 2 3 4 4 5 5 5 5 5 5 5 5 5 5 5 5 6 6 6 5 5 4 5
-7 -7 -7 -9 -9 -8 -8 -8 -8 -8 -8 -4 -2 -5 -6 -5 -4 -1 -1 0 1 1 3 3 4 4 5 5 5 5 5 5 5 5 5 5 6 6 6 6 4 5 5 5
-7 -7 -7 -8 -9 -8 -8 -9 -8 -7 -8 -6 -3 -4 -4 -5 -4 -2 -1 -0 0 1 2 3 4 4 5 5 5 5 5 5 5 6 6 6 6 6 6 6 6 5 6 6
-7 -7 -7 -8 -8 -9 -8 -8 -8 -7 -7 -3 -6 -7 -5 -5 -5 -2 -1 -1 -0 1 2 2 3 3 3 4 5 5 5 5 5 5 6 5 6 6 6 6 6 5 5 6
-7 -7 -7 -8 -8 -9 -8 -8 -7 -7 -6 -7 -6 -6 -6 -5 -4 -2 -2 -1 0 1 3 2 2 2 2 3 3 4 4 5 5 5 5 5 4 6 6 6 6 6 6 6
-7 -7 -8 -8 -8 -9 -8 -8 -8 -8 -8 -7 -4 -6 -6 -5 -4 -2 -2 -1 -0 1 1 2 2 1 2 3 3 3 4 5 4 5 4 1 5 6 6 5 6 5 5 5
-7 -7 -8 -8 -8 -9 -8 -8 -8 -8 -8 -7 -6 -6 -7 -6 -5 -4 -3 -2 -1 -0 0 1 1 1 2 3 3 4 4 4 4 4 4 5 5 6 6 6 5 5 5 5
-8 -8 -8 -8 -8 -9 -8 -8 -9 -8 -8 -7 -7 -6 -6 -6 -5 -4 -4 -2 -2 -1 -2 -1 0 2 2 2 3 4 4 4 4 3 4 2 5 6 5 5 5 6 5 5
-8 -7 -8 -8 -9 -9 -9 -8 -9 -8 -8 -7 -7 -7 -6 -6 -5 -3 -3 -2 -2 -1 -2 -2 -1 0 2 2 2 4 4 4 3 3 4 5 5 5 5 4 6 5 4 4
-7 -8 -8 -8 -9 -9 -8 -9 -9 -8 -8 -8 -7 -6 -6 -5 -5 -4 -3 -3 -2 -3 -3 -3 -2 -1 0 1 1 3 4 4 3 3 3 3 5 5 5 5 5 5 4 4
-8 -8 -8 -8 -9 -9 -9 -9 -8 -8 -8 -8 -7 -6 -6 -5 -4 -3 -3 -1 -1 -1 -2 -2 -2 -1 1 1 2 3 2 4 5 5 5 5 5 5 5 5 4 4 4 3
-8 -8 -8 -9 -9 -9 -9 -9 -9 -9 -9 -8 -7 -6 -5 -5 -4 -3 -3 -2 -2 -1 -0 -1 -1 -1 0 1 1 2 3 3 4 4 5 5 5 5 5 4 4 4 3 3
-9 -9 -10 -10 -10 -10 -10 -9 -9 -9 -8 -8 -8 -7 -5 -5 -4 -3 -2 -2 -3 -2 -2 -2 -1 -1 -0 1 1 2 3 3 4 4 4 4 4 4 4 4 4 3 3 3
-10 -10 -10 -10 -10 -10 -9 -10 -10 -9 -9 -8 -7 -6 -5 -5 -5 -3 -3 -3 -3 -2 -2 -3 -2 -1 -0 0 1 1 2 3 3 4 4 4 4 4 4 3 3 3 3 2
-11 -10 -10 -10 -10 -10 -10 -11 -10 -10 -10 -9 -8 -6 -4 -5 -4 -3 -2 -3 -3 -3 -3 -2 -2 -2 -1 -1 0 1 2 2 3 3 3 3 3 3 3 3 3 3 2 1
-10 -11 -11 -11 -11 -10 -10 -10 -9 -9 -9 -9 -8 -7 -5 -4 -4 -3 -4 -3 -3 -3 -3 -2 -2 -2 -1 -1 -1 -0 1 2 2 2 3 3 3 3 3 3 2 2 2 1
-11 -11 -11 -11 -11 -11 -11 -10 -10 -9 -8 -8 -7 -6 -5 -4 -3 -3 -2 -2 -2 -2 -2 -2 -2 -2 -2 -1 -1 -0 0 1 1 2 2 3 3 3 2 2 2 2 1 1
-11 -11 -11 -11 -11 -11 -10 -9 -8 -8 -8 -8 -7 -5 -5 -4 -3 -3 -3 -3 -2 -3 -2 -3 -3 -2 -2 -1 -1 -1 -1 0 1 2 3 3 3 2 2 2 2 1 1 1
-11 -11 -11 -11 -10 -9 -9 -9 -9 -8 -8 -8 -5 -5 -4 -4 -3 -3 -3 -2 -2 -2 -2 -2 -2 -1 -1 -1 -1 -1 -1 0 1 2 2 3 2 1 2 1 1 0 -0 -0
-10 -11 -11 -9 -9 -9 -9 -9 -8 -8 -8 -7 -5 -4 -3 -4 -3 -3 -3 -2 -3 -3 -2 -2 -2 -1 -1 -1 -1 -1 -1 -0 1 1 1 2 1 0 -0 0 -0 -0 -0 -1
-9 -9 -9 -9 -9 -9 -8 -8 -7 -6 -6 -5 -4 -4 -4 -4 -3 -4 -3 -3 -3 -3 -3 -3 -2 -2 -1 -1 -1 -2 -1 -1 -1 0 -0 -1 -1 -2 -2 -2 -2 -2 -3 -3
-9 -8 -9 -8 -8 -8 -7 -7 -6 -5 -4 -5 -4 -3 -4 -4 -4 -5 -4 -3 -3 -3 -3 -3 -3 -2 -1 -0 -1 -1 -2 -2 -2 -1 -2 -2 -2 -2 -2 -2 -3 -3 -5 -5
-9 -9 -9 -7 -6 -6 -6 -6 -6 -5 -3 -3 -3 -3 -5 -4 -4 -4 -4 -4 -3 -3 -3 -3 -2 -2 -2 -1 -3 -2 -2 -2 -2 -3 -3 -3 -3 -4 -4 -5 -6 -6 -6 -7
-8 -7 -8 -8 -7 -6 -6 -6 -5 -4 -4 -5 -5 -4 -4 -3 -4 -4 -4 -4 -4 -5 -5 -5 -3 -3 -3 -3 -3 -3 -4 -3 -3 -4 -4 -5 -5 -6 -6 -7 -7 -8 -8 -9
-8 -8 -9 -8 -7 -7 -6 -6 -5 -5 -5 -4 -4 -4 -4 -5 -4 -4 -6 -6 -7 -7 -7 -6 -5 -6 -5 -5 -5 -5 -5 -5 -6 -6 -6 -7 -8 -8 -8 -8 -9 -10 -10 -11
-9 -9 -8 -7 -7 -6 -6 -6 -5 -5 -4 -4 -4 -4 -5 -6 -6 -7 -8 -8 -8 -7 -7 -7 -7 -7 -6 -6 -6 -6 -7 -7 -7 -8 -8 -8 -9 -9 -10 -10 -10 -11 -11 -12

GFSNW_700_temp_063.txt.gz
Temp
-7 -7 -7 -7 -7 -7 -8 -8 -8 -7 -8 -8 -7 -5 -4 -3 -2 1 1 1 4 3 4 3 3 5 6 5 6 6 6 7 7 6 7 7 7 7 7 7 8 8 8 8
-7 -7 -7 -7 -7 -7 -7 -8 -8 -8 -8 -8 -7 -5 -3 -4 -3 -0 0 0 1 2 3 4 3 4 5 5 5 6 6 6 7 7 6 6 6 7 7 7 7 7 7 7
-7 -7 -7 -7 -7 -7 -7 -8 -8 -8 -8 -7 -5 -6 -5 -5 -3 -1 0 1 1 1 2 3 4 3 3 4 5 5 5 6 6 8 7 7 6 7 7 7 7 7 7 8
-8 -8 -7 -6 -7 -7 -7 -8 -8 -7 -7 -7 -7 -6 -5 -5 -4 -3 -1 0 0 1 2 3 2 3 3 4 4 5 5 5 6 7 7 8 8 7 7 7 7 7 7 8
-9 -8 -7 -7 -7 -7 -7 -8 -8 -7 -7 -7 -7 -6 -5 -5 -3 -2 -2 -1 -0 1 1 2 2 2 3 3 4 4 4 5 5 6 6 7 7 7 7 8 7 7 7 7
-9 -8 -8 -8 -7 -7 -7 -8 -7 -7 -7 -7 -7 -6 -5 -4 -3 -2 -1 -1 -0 0 0 0 1 2 3 2 3 4 4 4 5 6 6 6 6 6 7 7 7 7 7 7
-9 -9 -8 -8 -8 -7 -7 -6 -7 -7 -7 -6 -6 -6 -5 -4 -3 -2 -2 -2 -1 -1 -1 0 1 2 3 1 2 3 4 4 5 5 5 4 6 6 6 6 7 7 7 7
-8 -8 -8 -9 -8 -8 -7 -7 -8 -7 -6 -6 -6 -6 -6 -5 -4 -3 -2 -3 -1 -2 -2 -1 0 2 1 1 2 2 2 4 4 4 4 5 6 6 6 6 7 7 7 7
-8 -8 -8 -9 -8 -7 -7 -7 -7 -8 -6 -6 -5 -6 -5 -5 -4 -4 -2 -2 -3 -3 -3 -2 0 1 1 2 1 2 2 2 3 3 4 4 5 6 6 6 6 6 7 7
-8 -8 -8 -8 -8 -8 -7 -7 -8 -8 -7 -6 -6 -6 -6 -5 -4 -4 -3 -3 -3 -2 -3 -3 -0 1 2 3 2 1 1 0 2 3 3 5 6 6 6 5 6 7 6 6
-9 -8 -8 -8 -8 -7 -7 -7 -8 -8 -7 -7 -6 -6 -6 -6 -5 -4 -4 -3 -3 -3 -3 -2 -0 0 2 3 3 2 2 1 1 2 3 3 5 5 5 6 6 6 6 5
-8 -8 -8 -8 -7 -7 -8 -8 -8 -8 -7 -6 -6 -6 -6 -6 -5 -4 -4 -4 -3 -3 -2 -2 -1 -0 0 1 2 2 1 3 3 3 4 4 5 5 5 5 6 5 5 5
-8 -8 -8 -8 -8 -7 -8 -7 -8 -8 -7 -7 -7 -7 -6 -6 -6 -5 -4 -4 -3 -3 -2 -2 -2 -1 -0 0 1 3 2 2 3 3 3 4 4 5 5 5 5 5 5 5
-8 -8 -8 -8 -8 -8 -8 -8 -8 -8 -7 -7 -7 -7 -6 -6 -5 -5 -5 -4 -4 -3 -3 -2 -2 -1 0 -0 1 1 2 2 2 2 2 3 4 4 4 5 4 4 4 4
-8 -8 -8 -8 -8 -8 -8 -8 -8 -8 -8 -7 -7 -6 -6 -6 -6 -5 -4 -3 -4 -4 -4 -3 -3 -2 -1 -1 -0 0 1 2 1 1 2 3 3 3 3 3 4 4 4 4
-8 -8 -8 -8 -8 -8 -8 -8 -8 -8 -8 -7 -7 -7 -7 -6 -6 -5 -5 -5 -4 -5 -4 -4 -3 -2 -1 -1 -0 0 2 1 1 1 1 1 2 3 3 3 3 4 4 3
-8 -8 -8 -9 -9 -8 -8 -8 -8 -8 -8 -8 -8 -8 -7 -7 -7 -6 -6 -6 -5 -4 -4 -3 -3 -2 -2 -2 -2 2 1 0 0 1 0 1 1 2 2 2 3 3 3 3
-9 -9 -9 -9 -9 -9 -9 -8 -7 -8 -8 -8 -8 -8 -7 -6 -6 -6 -5 -5 -5 -5 -4 -4 -3 -3 -2 -3 -0 3 1 0 -0 -1 -0 0 1 1 2 2 2 2 2 2
-9 -9 -10 -9 -9 -9 -8 -8 -8 -8 -9 -8 -8 -7 -6 -5 -5 -6 -6 -5 -5 -5 -4 -4 -3 -3 -3 -2 1 -0 -1 -1 -1 -1 -1 0 1 1 1 2 2 2 2 2
-9 -10 -10 -9 -9 -9 -9 -9 -9 -9 -8 -8 -7 -7 -6 -5 -5 -5 -5 -4 -4 -4 -4 -4 -4 -3 -3 -2 -2 -2 -2 -1 -2 -1 -0 -0 0 0 0 0 1 1 1 1
-10 -10 -9 -10 -9 -9 -9 -8 -8 -8 -8 -7 -7 -7 -6 -6 -6 -5 -5 -4 -4 -3 -3 -3 -3 -3 -3 -3 -2 -2 -2 -2 -1 -1 -1 -1 -1 -1 -1 -1 -1 -0 -0 0
-9 -9 -9 -9 -9 -9 -8 -8 -8 -8 -8 -7 -7 -6 -6 -6 -6 -6 -5 -4 -4 -3 -3 -3 -3 -3 -3 -3 -3 -3 -3 -2 -2 -2 -1 -1 -1 -1 -1 -1 -0 -0 -1 -1
-9 -9 -9 -9 -9 -9 -8 -8 -8 -8 -7 -6 -6 -5 -7 -7 -6 -5 -4 -3 -4 -3 -3 -3 -4 -4 -3 -3 -2 -2 -2 -2 -3 -2 -2 -2 -2 -2 -2 -2 -2 -2 -3 -3
-9 -9 -9 -9 -9 -9 -8 -8 -7 -7 -6 -6 -5 -5 -6 -6 -5 -4 -4 -4 -3 -3 -4 -6 -6 -5 -4 -4 -4 -3 -3 -3 -3 -3 -2 -3 -3 -3 -3 -3 -4 -5 -5 -6
-8 -8 -8 -10 -9 -8 -8 -7 -7 -6 -7 -5 -5 -5 -5 -6 -5 -4 -5 -5 -6 -7 -8 -7 -7 -6 -5 -5 -5 -4 -4 -4 -4 -4 -4 -3 -4 -4 -5 -5 -6 -7 -8 -8
-8 -8 -8 -8 -9 -9 -8 -7 -7 -7 -6 -6 -6 -5 -5 -5 -5 -6 -6 -7 -10 -10 -9 -8 -7 -6 -6 -6 -5 -5 -5 -5 -5 -5 -6 -6 -6 -7 -7 -7 -9 -9 -9 -10
-9 -10 -9 -9 -9 -9 -8 -7 -7 -7 -6 -5 -6 -6 -6 -7 -7 -9 -9 -12 -12 -11 -10 -8 -8 -7 -7 -7 -7 -7 -7 -7 -7 -7 -8 -8 -8 -9 -9 -10 -10 -10 -10 -10

GFSNW_700_temp_069.txt.gz
Temp
-5 -5 -5 -6 -6 -7 -6 -7 -7 -8 -8 -8 -7 -6 -7 -5 -4 -4 -2 -3 -2 -0 0 1 2 4 4 4 5 5 5 4 3 5 6 7 7 7 7 7 7 7 7 6
-5 -5 -5 -6 -7 -7 -7 -7 -7 -8 -7 -7 -6 -7 -8 -6 -4 -4 -2 -3 -1 1 1 -0 3 4 4 5 4 4 4 3 2 4 6 7 7 7 7 7 7 7 4 6
-6 -6 -7 -8 -7 -7 -7 -7 -7 -8 -8 -6 -5 -8 -7 -7 -5 -5 -3 -2 -1 -1 -0 1 2 3 4 4 5 4 4 2 2 3 4 6 7 7 7 7 7 7 7 7
-7 -8 -9 -8 -7 -7 -7 -7 -7 -7 -7 -7 -8 -8 -7 -7 -7 -4 -3 -3 -2 -2 -1 0 1 0 2 3 4 4 3 2 2 4 5 5 6 7 7 7 7 7 7 7
-8 -9 -8 -8 -7 -7 -7 -7 -7 -7 -6 -7 -8 -8 -7 -6 -6 -4 -2 -3 -1 -2 -1 -1 1 -1 0 1 1 3 3 2 2 3 4 5 5 6 7 7 7 7 7 7
-8 -9 -9 -9 -8 -7 -7 -7 -7 -7 -7 -7 -7 -5 -5 -6 -6 -5 -4 -2 -2 -2 -1 -1 -1 -1 0 0 1 2 4 3 3 3 3 5 4 5 6 6 7 7 7 8
-9 -10 -9 -9 -8 -8 -7 -6 -6 -7 -7 -7 -6 -6 -7 -7 -6 -5 -4 -4 -3 -1 -2 -2 -1 -1 -1 0 2 3 3 3 3 3 3 3 5 5 6 6 7 7 7 7
-9 -9 -9 -9 -9 -8 -8 -7 -7 -7 -7 -5 -7 -6 -5 -5 -5 -5 -4 -4 -3 -2 -3 -3 -2 -2 -1 -0 1 3 3 3 3 2 4 4 5 5 6 6 7 7 7 7
-9 -9 -9 -9 -9 -9 -8 -8 -7 -7 -7 -6 -5 -6 -5 -5 -5 -5 -4 -4 -3 -3 -3 -3 -3 -2 -1 -1 1 2 1 3 3 3 3 2 4 5 5 6 6 6 7 7
-9 -9 -9 -9 -9 -9 -9 -8 -8 -7 -7 -6 -6 -6 -5 -5 -4 -4 -4 -4 -3 -3 -3 -3 -4 -3 -1 1 1 2 2 2 2 2 2 4 4 5 6 5 5 6 6 7
-9 -9 -9 -9 -9 -9 -9 -8 -8 -7 -7 -6 -6 -5 -5 -5 -5 -5 -4 -4 -4 -4 -4 -4 -3 -3 -1 -2 1 2 2 1 1 1 1 1 4 4 5 5 6 6 6 6
-9 -9 -9 -9 -9 -9 -9 -8 -8 -7 -7 -7 -6 -5 -5 -5 -5 -6 -5 -4 -3 -4 -3 -4 -3 -2 -1 -0 1 1 1 2 2 2 2 2 3 3 3 4 5 5 5 5
-9 -8 -8 -9 -9 -9 -9 -8 -8 -7 -6 -6 -6 -6 -5 -5 -5 -6 -5 -4 -4 -4 -3 -3 -3 -2 -1 -0 1 1 1 2 2 1 1 2 2 1 1 4 4 4 5 5
-8 -8 -9 -9 -9 -9 -9 -8 -7 -7 -7 -6 -6 -5 -5 -5 -6 -5 -5 -5 -4 -4 -3 -4 -4 -2 -1 0 1 1 1 2 2 1 2 -1 1 -0 1 3 3 3 4 4
-8 -8 -8 -9 -9 -9 -9 -8 -8 -7 -7 -6 -6 -5 -6 -5 -6 -5 -5 -5 -5 -5 -4 -3 -4 -3 -1 -1 0 1 1 1 1 1 2 1 2 2 2 2 2 2 3 3
-8 -8 -8 -8 -8 -9 -8 -8 -7 -7 -7 -6 -6 -7 -6 -6 -5 -5 -5 -5 -5 -5 -5 -4 -4 -3 -2 -1 -0 0 1 1 1 2 2 1 1 1 1 1 2 2 2 3
-8 -9 -9 -9 -9 -8 -8 -8 -7 -7 -7 -6 -7 -6 -6 -6 -5 -5 -5 -5 -5 -5 -5 -4 -3 -4 -3 -3 -1 -1 0 1 1 1 1 1 1 1 1 1 1 1 1 1
-9 -9 -9 -8 -8 -8 -7 -7 -7 -7 -7 -7 -7 -7 -7 -6 -6 -5 -6 -6 -6 -5 -5 -5 -4 -4 -3 -2 -2 -1 -0 0 0 1 1 0 0 0 0 1 1 1 1 1
-8 -8 -8 -8 -8 -7 -7 -7 -7 -7 -7 -8 -7 -7 -7 -7 -7 -6 -6 -6 -7 -6 -5 -4 -4 -4 -4 -4 -2 -2 -2 -1 -1 -0 0 0 -0 -1 -1 0 1 0 0 0
-8 -8 -8 -8 -8 -8 -8 -8 -8 -8 -8 -8 -7 -6 -6 -6 -6 -6 -6 -6 -5 -5 -5 -5 -5 -4 -4 -3 -3 -2 -2 -2 -2 -1 -1 -1 -1 -1 -1 -1 -1 -1 -1 -1
-8 -8 -8 -8 -8 -8 -8 -8 -8 -8 -8 -7 -7 -6 -6 -6 -6 -6 -6 -6 -5 -5 -5 -5 -5 -5 -4 -4 -3 -3 -3 -3 -3 -2 -2 -2 -2 -2 -2 -2 -2 -2 -2 -2
-8 -8 -8 -9 -8 -8 -8 -8 -7 -7 -7 -7 -7 -6 -6 -6 -6 -5 -6 -6 -6 -5 -5 -5 -5 -5 -4 -3 -3 -3 -3 -3 -3 -3 -3 -3 -3 -3 -3 -3 -3 -2 -3 -2
-9 -9 -8 -8 -8 -8 -8 -8 -8 -8 -8 -7 -7 -7 -7 -6 -6 -6 -6 -5 -5 -4 -5 -7 -10 -8 -6 -5 -4 -4 -3 -3 -3 -3 -3 -3 -3 -3 -3 -3 -3 -3 -3 -3
-8 -8 -8 -8 -9 -9 -9 -8 -8 -8 -8 -7 -7 -7 -7 -7 -6 -6 -6 -6 -6 -6 -8 -11 -10 -9 -7 -5 -5 -5 -5 -5 -4 -4 -4 -4 -4 -3 -3 -4 -4 -4 -5 -6
-7 -8 -8 -9 -9 -9 -8 -8 -8 -7 -8 -7 -7 -7 -7 -6 -6 -6 -6 -6 -9 -11 -12 -12 -10 -9 -7 -6 -6 -5 -5 -5 -6 -5 -5 -5 -5 -5 -5 -6 -6 -7 -8 -8
-7 -8 -9 -8 -8 -8 -8 -8 -8 -8 -8 -8 -7 -7 -6 -6 -7 -7 -9 -10 -13 -13 -13 -12 -11 -9 -9 -8 -7 -7 -7 -8 -7 -7 -7 -7 -8 -8 -8 -8 -9 -10 -10 -10
-9 -11 -11 -10 -9 -8 -8 -8 -8 -8 -8 -7 -7 -6 -7 -8 -8 -11 -13 -14 -14 -13 -13 -12 -11 -10 -9 -9 -9 -9 -9 -9 -9 -9 -9 -9 -9 -10 -10 -10 -10 -10 -11 -11

GFSNW_700_temp_072.txt.gz
Temp
-7 -6 -6 -6 -6 -6 -7 -7 -7 -7 -7 -7 -7 -7 -8 -7 -6 -5 -5 -3 -4 -2 -2 -3 -3 0 1 3 4 4 3 4 4 5 5 5 6 6 7 6 4 4 3 6
-6 -6 -6 -6 -6 -6 -7 -7 -7 -7 -7 -7 -8 -8 -7 -8 -7 -5 -4 -4 -3 -3 -3 -3 -1 -0 2 3 3 4 4 3 3 4 5 5 4 5 7 7 6 5 3 5
-6 -6 -6 -6 -6 -6 -7 -7 -7 -7 -7 -6 -7 -8 -8 -8 -8 -7 -5 -4 -4 -4 -4 -2 -2 -1 -0 2 3 4 4 4 4 3 4 4 5 6 6 7 6 6 6 6
-6 -6 -6 -6 -7 -7 -7 -7 -7 -6 -8 -7 -8 -8 -8 -8 -8 -8 -5 -5 -4 -3 -4 -3 -1 -0 1 1 2 3 4 4 4 4 4 4 4 5 5 7 7 7 7 7
-8 -8 -8 -8 -8 -8 -7 -7 -7 -7 -7 -8 -8 -8 -7 -8 -8 -8 -5 -6 -4 -3 -3 -2 -2 -2 -1 -0 1 3 3 4 4 3 3 2 3 4 5 5 5 7 7 7
-8 -8 -8 -9 -8 -8 -7 -7 -7 -7 -7 -7 -7 -4 -7 -8 -8 -7 -4 -5 -4 -4 -4 -2 -2 -2 -2 -1 0 1 1 2 3 2 2 2 1 3 4 3 5 5 7 7
-8 -8 -8 -8 -9 -8 -7 -7 -7 -7 -7 -7 -6 -7 -7 -7 -7 -7 -4 -5 -6 -3 -3 -3 -3 -3 -3 -2 -1 -0 0 1 2 3 2 -0 1 4 4 4 5 6 6 7
-10 -9 -9 -9 -9 -8 -8 -8 -7 -7 -7 -7 -7 -7 -7 -6 -6 -6 -4 -5 -5 -4 -5 -4 -4 -3 -2 -1 -0 -0 -0 0 1 2 2 1 2 4 4 4 5 6 6 6
-9 -9 -9 -10 -9 -9 -9 -8 -8 -7 -7 -7 -7 -7 -7 -6 -5 -5 -6 -4 -4 -5 -5 -4 -4 -3 -2 -0 0 1 -0 0 2 2 2 -1 3 4 5 4 4 5 6 7
-9 -9 -9 -9 -9 -10 -9 -9 -8 -7 -7 -6 -7 -6 -6 -6 -5 -4 -4 -4 -4 -5 -5 -4 -4 -4 -3 -2 -1 0 -1 -0 1 1 2 2 3 4 4 4 4 5 4 6
-9 -9 -9 -9 -9 -9 -9 -9 -9 -8 -7 -7 -7 -6 -5 -5 -5 -4 -3 -4 -4 -4 -4 -4 -3 -3 -3 -2 -2 -0 -1 -1 1 1 1 1 3 4 4 3 4 5 5 5
-8 -9 -9 -9 -9 -9 -9 -9 -9 -9 -8 -7 -7 -6 -5 -4 -4 -4 -4 -4 -4 -4 -4 -4 -4 -3 -3 -2 -2 -0 0 1 1 1 2 2 3 3 2 2 3 4 4 4
-8 -9 -9 -9 -9 -9 -9 -10 -9 -9 -8 -7 -7 -6 -6 -5 -5 -4 -5 -5 -4 -4 -4 -4 -4 -4 -3 -2 -1 -0 1 1 1 2 2 2 2 2 2 2 2 3 3 3
-9 -9 -9 -9 -9 -9 -9 -9 -8 -8 -7 -7 -7 -7 -6 -6 -5 -5 -4 -4 -5 -5 -5 -4 -4 -4 -3 -3 -2 -1 0 1 1 1 1 2 1 1 1 2 1 2 2 3
-9 -9 -9 -9 -9 -9 -9 -9 -8 -7 -7 -6 -7 -7 -6 -6 -5 -5 -6 -5 -5 -5 -5 -5 -5 -4 -3 -3 -2 -1 0 1 0 1 2 1 1 1 2 2 3 -0 1 2
-8 -9 -9 -9 -9 -9 -9 -9 -9 -8 -6 -7 -7 -7 -6 -6 -6 -6 -6 -5 -5 -5 -5 -5 -4 -4 -3 -3 -3 -1 -1 -0 -0 0 1 1 1 1 1 1 1 0 2 2
-8 -9 -8 -9 -9 -8 -8 -8 -7 -7 -7 -6 -7 -7 -6 -6 -6 -6 -6 -6 -6 -6 -5 -5 -5 -4 -4 -5 -5 -2 -1 -0 -0 0 1 1 1 1 1 1 0 0 0 1
-8 -9 -9 -9 -9 -8 -8 -8 -7 -8 -7 -6 -7 -6 -6 -6 -7 -7 -6 -5 -5 -5 -5 -5 -5 -5 -5 -5 -4 -3 -1 -1 -1 0 0 1 0 0 -0 0 0 1 1 1
-8 -8 -8 -8 -8 -7 -7 -7 -7 -7 -7 -7 -6 -7 -7 -7 -7 -6 -5 -5 -5 -6 -6 -5 -5 -6 -5 -4 -4 -4 -3 -1 -1 -0 -0 -0 -0 -0 -0 -0 -0 -0 -0 -0
-8 -8 -8 -8 -8 -7 -7 -7 -7 -7 -6 -6 -6 -6 -6 -6 -6 -6 -6 -7 -6 -6 -5 -6 -6 -6 -5 -5 -4 -4 -3 -2 -1 -1 -1 -2 -1 -1 -1 -1 -1 -1 -1 -2
-8 -7 -8 -8 -8 -8 -8 -8 -8 -7 -7 -7 -6 -6 -6 -6 -6 -6 -6 -6 -6 -6 -6 -6 -6 -6 -6 -5 -5 -4 -4 -3 -3 -3 -2 -2 -2 -2 -2 -2 -2 -2 -2 -2
-7 -8 -8 -8 -8 -7 -7 -7 -7 -7 -8 -7 -7 -6 -6 -6 -6 -6 -6 -6 -6 -6 -6 -6 -7 -8 -5 -5 -4 -5 -4 -4 -4 -3 -3 -3 -3 -3 -3 -3 -3 -3 -3 -3
-7 -7 -7 -7 -7 -8 -7 -8 -9 -8 -8 -8 -7 -7 -7 -6 -6 -6 -6 -6 -6 -6 -5 -8 -10 -9 -8 -7 -6 -5 -4 -3 -3 -2 -2 -2 -3 -3 -3 -3 -3 -3 -3 -4
-6 -6 -7 -7 -8 -9 -8 -8 -9 -9 -8 -8 -7 -7 -7 -7 -7 -6 -6 -6 -6 -7 -10 -12 -11 -10 -9 -8 -7 -6 -4 -4 -4 -3 -3 -3 -4 -4 -4 -5 -5 -5 -5 -5
-7 -8 -8 -10 -10 -9 -9 -8 -8 -8 -8 -8 -7 -7 -7 -7 -7 -7 -7 -7 -10 -12 -13 -12 -11 -11 -10 -9 -8 -7 -6 -5 -6 -6 -6 -6 -6 -6 -7 -7 -7 -8 -8 -8
-7 -9 -10 -9 -9 -9 -8 -8 -8 -8 -8 -8 -7 -7 -7 -7 -7 -8 -10 -10 -13 -13 -13 -12 -11 -11 -11 -10 -10 -9 -8 -8 -8 -8 -8 -8 -8 -8 -9 -9 -10 -10 -10 -10
-10 -11 -10 -9 -9 -8 -8 -8 -9 -9 -9 -8 -7 -7 -8 -8 -8 -10 -12 -13 -14 -13 -13 -13 -12 -12 -12 -12 -11 -10 -10 -10 -11 -10 -10 -10 -10 -10 -10 -10 -10 -11 -11 -11